Location: Buloyer
(48.7457°N, 2.0292°E)
Time: 23:03:18
(UTC+00:00)

Daily predictions for brighter satellites

Satellite Brightness Start Highest point End
(mag) Time Altitude Azimuth Time Altitude Azimuth Time Altitude Azimuth
Cosmos 2369 Rocket 3.8 16:39:04 10° WSW 16:43:54 29° NW 16:48:45 10° NNE
Cosmos 1869 4.4 16:47:24 10° SE 16:50:35 24° E 16:53:46 10° NE
Cosmos 2221 2.7 16:47:11 10° S 16:51:22 52° E 16:55:37 10° NNE
YAOGAN 6 4.2 16:50:07 10° E 16:52:07 15° ENE 16:54:08 10° NNE
ASTEX 1 3.4 16:47:31 10° N 16:52:34 83° E 16:57:34 10° S
YAOGAN 1 4.1 16:52:54 10° E 16:55:35 16° ENE 16:58:17 10° NNE
Cosmos 1455 3.3 16:52:28 10° SSW 16:56:07 47° WNW 16:59:47 10° N
IRS-1C Rocket 4.1 16:51:46 10° SSE 16:57:03 78° ENE 17:02:21 10° NNW
Cosmos 1689 Rocket 3.7 16:54:45 10° N 16:57:35 36° WNW 17:00:24 10° SW
Cosmos 2227 Rocket 2.3 16:55:19 10° NNW 17:00:54 55° ENE 17:06:27 10° SE
Cosmos 2297 Rocket 2.3 16:55:25 10° NNW 17:01:02 59° ENE 17:06:36 10° SE
CORIOLIS 4.2 16:55:44 10° SSE 17:01:03 62° ENE 17:06:25 10° N
ERBS 4.4 16:59:19 10° SSE 17:01:04 14° SE 17:02:48 10° E
Cosmos 1238 Rocket 2.8 16:56:32 10° N 17:01:08 71° E 17:04:52 10° SSE
CZ-4 R/B 2.7 16:58:25 10° ESE 17:01:32 21° ENE 17:04:36 10° NNE
CENTAUR R/B 4.1 16:56:45 10° WNW 17:02:29 27° N 17:08:54 10° NE
Cosmos 1842 Rocket 3.7 17:00:34 10° S 17:05:03 83° W 17:09:34 10° N
Meteor 2-10 Rocket 3.8 17:00:12 10° SSW 17:05:11 71° WNW 17:10:17 10° N
Cosmos 2344 3.8 17:00:30 10° SW 17:08:00 80° NW 17:16:31 10° NE
Okean-O 2.7 17:06:43 10° SSE 17:11:00 53° ENE 17:15:21 10° N
Cosmos 1943 Rocket 4.4 17:11:30 10° W 17:15:21 18° NW 17:19:14 10° N
Ariane Rocket 4.5 17:14:22 13° E 17:16:23 16° NE 17:19:26 10° NNE
H-2A R/B 2.7 17:14:16 10° SSE 17:18:07 85° ENE 17:21:58 10° NNW
ATLAS 3B R/B 4.1 17:15:18 10° WNW 17:20:25 23° N 17:25:33 10° NE
Genesis I 3.3 17:18:15 10° SW 17:22:16 86° NW 17:25:52 13° NE
Cosmos 1805 Rocket 3.5 17:18:48 10° N 17:23:10 68° E 17:27:30 10° SSE
Cosmos 2263 Rocket 3.7 17:19:49 10° N 17:23:24 17° NE 17:25:09 15° ENE
Cosmos 773 Rocket 3.9 17:19:23 10° SSW 17:24:32 77° ESE 17:29:46 10° NNE
Cosmos 2233 Rocket 4.3 17:18:34 10° NNW 17:24:54 74° W 17:31:09 10° S
Cosmos 1867 3.8 17:20:30 10° SW 17:25:57 71° NW 17:31:27 10° NE
Cosmos 2082 3.7 17:23:15 10° NNW 17:28:48 57° ENE 17:34:19 10° SE
YAOGAN 3 4.5 17:28:56 10° SSE 17:33:18 82° ENE 17:37:41 10° NNW
COBE Rocket 3.8 17:28:39 10° NNE 17:33:29 69° E 17:38:10 10° S
Cosmos 2056 Rocket 4.4 17:32:17 10° N 17:36:39 27° NE 17:38:47 21° E
Cosmos 1697 Rocket 3.3 17:33:47 10° SSE 17:38:48 34° ESE 17:42:03 19° NE
Meteor 2-2 Rocket 4.3 17:33:03 10° S 17:38:56 89° ESE 17:44:44 10° NNE
ATLAS 5 CENTAUR R/B 2.6 17:33:35 10° NW 17:39:18 73° SW 17:45:51 10° SSE
Meteor 2-20 Rocket 4.4 17:34:18 10° S 17:40:20 65° E 17:46:26 10° NNE
Cosmos 1862 3.5 17:37:19 10° N 17:41:11 47° ENE 17:45:02 10° SSE
CZ-3B R/B 3.7 17:41:56 10° WNW 17:43:45 23° N 17:44:04 22° N
Cosmos 1538 Rocket 4.0 17:39:40 10° SSW 17:44:57 86° ESE 17:50:19 10° NNE
BREEZE-M DEB (TANK) 1.9 17:43:35 10° W 17:47:06 72° N 17:47:37 48° ENE
Cosmos 1464 Rocket 3.9 17:41:59 10° N 17:48:11 72° E 17:54:17 10° SSE
Cosmos 1891 Rocket 4.4 17:41:57 10° N 17:48:23 73° E 17:54:36 10° SSE
NOAA 12 4.3 17:43:32 10° S 17:48:51 75° WSW 17:54:13 10° NNW
GEOS 3 Rocket 3.6 17:45:35 16° NE 17:49:55 89° NW 17:55:12 10° SW
Cosmos 1633 Rocket 3.0 17:48:13 10° N 17:52:36 61° ENE 17:56:58 10° SSE
Cosmos 1072 Rocket 4.4 17:51:11 10° N 17:57:21 89° E 18:03:32 10° S
Cosmos 397 4.3 17:55:18 10° NNW 17:59:29 69° NE 18:01:34 27° SE
USA 215 3.4 17:56:07 25° E 17:59:59 57° NNE 18:06:21 10° NW
Cosmos 1633 2.6 17:57:17 10° NNW 18:00:57 82° W 18:04:35 10° S
COSMO-SKYMED 1 2.4 17:57:43 10° NNE 18:02:04 69° ESE 18:06:24 10° S
Cosmos 1666 Rocket 3.5 17:59:43 10° N 18:04:08 86° W 18:08:28 10° S
Sich 1 3.5 18:00:52 10° NNW 18:05:09 63° W 18:09:28 10° S
NOSS 2-3 (E) 4.2 18:04:14 10° S 18:08:19 40° ESE 18:08:53 39° ESE
Cosmos 1656 3.6 18:03:38 10° SSW 18:09:12 89° WNW 18:13:25 18° NNE
Cosmos 1328 Rocket 3.6 18:05:42 10° S 18:10:00 53° E 18:11:27 36° NE
USA 229 DEB 3.7 18:04:08 10° SW 18:10:45 83° NW 18:15:39 21° NE
USA 229 3.7 18:04:14 10° SW 18:10:50 84° NW 18:15:43 21° NE
Envisat 3.6 18:06:50 10° S 18:11:50 58° W 18:16:52 10° NNW
NOAA 11 4.2 18:07:02 10° SSE 18:12:19 57° ENE 18:17:39 10° N
Cosmos 1151 Rocket 3.1 18:08:33 10° S 18:12:46 52° E 18:13:22 47° ENE
NOSS 3-1 (A) 3.3 18:10:22 10° SSW 18:15:54 71° SE 18:18:59 31° NE
Cosmos 1356 Rocket 4.2 18:12:02 10° SSW 18:16:07 53° WNW 18:20:16 10° N
NOSS 3-1 (C) 3.4 18:10:38 10° SW 18:16:15 82° NW 18:20:14 25° NE
CSL-04 Debris 4.1 18:11:00 10° SSE 18:16:30 87° ENE 18:22:02 10° NNW
NOSS 2-3 (D) 4.0 18:13:35 10° SSW 18:17:45 45° ESE 18:17:54 45° ESE
Cosmos 1932 4.5 18:12:04 10° NW 18:18:38 73° NE 18:22:24 27° SE
SeaSat 1 3.8 18:15:35 10° S 18:20:13 40° WSW 18:24:53 10° NW
CZ-2D R/B 4.1 18:24:16 38° N 18:24:16 38° N 18:26:48 10° N
YAOGAN 6 3.5 18:21:55 10° S 18:25:17 46° W 18:28:41 10° NNW
Lacrosse 4 Rocket 1.1 18:22:00 10° SSW 18:26:05 85° ESE 18:26:18 78° ENE
Cosmos 1371 Rocket 3.8 18:21:55 10° NNW 18:27:09 73° ENE 18:29:08 38° SE
YAOGAN 1 2.8 18:26:54 10° S 18:31:12 67° WSW 18:35:32 10° NNW
CSL-04 Rocket 3.9 18:28:52 10° S 18:34:13 70° WSW 18:39:32 10° NNW
Cosmos 1470 Rocket 3.5 18:30:33 10° N 18:35:03 89° WNW 18:37:26 28° S
CZ-4 R/B 2.5 18:32:18 10° S 18:36:17 45° W 18:40:14 10° NNW
ERBS 3.5 18:33:37 10° SW 18:35:52 40° WSW 18:35:52 40° WSW
USA 116 4.2 18:34:34 27° N 18:37:05 83° WNW 18:42:06 10° SSW
Cosmos 2346 Rocket 4.3 18:33:23 10° S 18:39:37 85° E 18:45:51 10° N
Cosmos 724 4.3 18:34:34 10° NW 18:40:27 76° SW 18:43:12 32° SSE
Cosmos 1980 Rocket 2.2 18:37:10 10° S 18:42:22 57° SE 18:42:22 57° SE
Cosmos 2112 Rocket 3.8 18:37:31 10° SSW 18:42:42 81° ESE 18:43:25 66° NE
Cosmos 2227 Rocket 4.2 18:39:54 10° NW 18:44:38 28° WSW 18:49:21 10° SSW
Cosmos 2297 Rocket 4.3 18:40:06 10° NW 18:44:41 26° WSW 18:49:16 10° SSW
Cosmos 2034 Rocket 4.4 18:38:41 10° NNW 18:44:57 64° W 18:51:13 10° S
Cosmos 1939 Rocket 3.7 18:50:52 47° NNW 18:50:52 47° NNW 18:53:55 10° NNW
Cosmos 1680 Rocket 3.5 18:44:44 10° SSW 18:49:57 78° WNW 18:51:19 50° N
Ariane Rocket 2.9 18:54:35 88° SSE 18:54:39 90° NE 18:59:47 10° NNW
CENTAUR R/B 3.9 18:48:59 10° NW 18:55:33 32° NNE 18:56:35 31° NE
NOSS 2-3 (C) 3.9 18:51:11 10° SW 18:54:59 67° SW 18:54:59 67° SW
USA 238 DEB 4.3 18:55:23 10° NW 19:02:04 43° NNE 19:02:04 43° NNE
USA 238 4.3 18:55:29 10° NW 19:02:10 42° NNE 19:02:10 42° NNE
Cosmos 2369 4.2 18:58:33 10° SW 19:04:08 58° WNW 19:06:07 38° N
H-2A R/B 4.0 19:09:31 19° N 19:09:31 19° N 19:11:06 10° N
Cosmos 1634 Rocket 3.8 19:00:05 10° N 19:06:20 87° E 19:07:07 70° SSE
Cosmos 2263 Rocket 2.7 19:02:52 10° NNW 19:06:53 46° N 19:06:53 46° N
NOSS 3-2 (A) 4.4 19:01:59 10° NW 19:08:42 44° NNE 19:08:42 44° NNE
Tsikada Rocket 4.2 19:02:59 10° SSW 19:09:18 71° W 19:15:45 10° N
ATLAS 3B R/B 3.9 19:07:46 10° NW 19:12:52 27° NNE 19:12:52 27° NNE
Cosmos 2360 4.3 19:11:06 10° SW 19:16:37 72° WNW 19:16:37 72° WNW
Cosmos 2056 Rocket 4.1 19:14:05 10° NNW 19:19:04 51° WSW 19:19:10 51° WSW
Cosmos 1697 Rocket 3.5 19:17:10 10° SW 19:22:37 46° NW 19:23:49 40° NNW
Cosmos 2278 4.2 19:18:17 10° SW 19:23:51 55° WNW 19:24:19 53° NW
USA 215 3.4 19:43:28 65° WSW 19:43:28 65° WSW 19:49:29 10° WNW
Cosmos 1980 Rocket 4.4 20:22:06 10° WSW 20:24:11 20° W 20:24:11 20° W
CENTAUR R/B 4.3 20:39:52 10° NW 20:43:46 34° NNW 20:43:46 34° NNW
